Home > Weather > Pori > Past weeks

Flag for Finland Past Weather in Pori, Finland — Yesterday and Last 2 Weeks

Now
79 °F

Passing clouds.


Feels Like: 79 °F
Forecast: 55 / 74 °F
Wind: 3 mph from North

Location: Pori Airport

Current Time: May 31, 2016 at 3:08:53 PM

Latest Report: May 31, 2016 at 2:20 PM


Visibility: N/A

Pressure: 30.21 "Hg

Humidity: 37%

Dew Point: 50 °F

Location of PoriLocation

Past Weather in Pori — Graph

°F

Pori Temperature Yesterday

Maximum temperature yesterday: 73 °F (at 3:20 PM)
Minimum temperature yesterday: 57 °F (at 1:20 AM)
Average temperature yesterday: 64 °F

High & Low Weather Summary for the Past Weeks

 TemperatureHumidityPressure
High79 °F (May 31, 1:20 PM)100% (May 18, 3:50 AM)30.30 "Hg (May 18, 3:50 AM)
Low41 °F (May 18, 12:20 AM)37% (May 31, 1:50 PM)29.65 "Hg (May 16, 1:20 PM)
Average56 °F74%29.99 "Hg
* Reported May 16 1:20 PM — May 31 1:50 PM, Pori, Weather by CustomWeather, © 2016

Note: Actual official high and low records may vary slightly from our data, if they occured in-between our weather recording intervals... More about our weather records

Advertising

Pori Weather History for the Previous 24 Hours

Scroll right to see more
 ConditionsComfort  
Time TempWeatherWind HumidityBarometerVisibility
1:50 PM
Tue, May 31
79 °FPassing clouds.3 mph37%30.21 "HgN/A
1:20 PM79 °FPassing clouds.6 mph39%30.21 "HgN/A
12:50 PM77 °FPassing clouds.3 mph44%30.21 "HgN/A
12:20 PM77 °FPassing clouds.3 mph42%30.21 "HgN/A
11:50 AM77 °FSunny.2 mph42%30.21 "Hg10 mi
11:20 AM75 °FSunny.1 mph50%30.21 "Hg10 mi
10:50 AM75 °FSunny.2 mph47%30.21 "Hg10 mi
10:20 AM73 °FSunny.1 mph53%30.21 "Hg10 mi
9:50 AM72 °FSunny.2 mph57%30.21 "Hg10 mi
9:20 AM70 °FPassing clouds.5 mph60%30.21 "HgN/A
8:50 AM68 °FSunny.2 mph64%30.21 "Hg10 mi
8:20 AM66 °FSunny.2 mph64%30.21 "Hg10 mi
7:50 AM64 °FPassing clouds.3 mph68%30.21 "HgN/A
7:20 AM63 °FSunny.1 mph73%30.21 "Hg10 mi
6:50 AM59 °FSunny.1 mph82%30.21 "Hg10 mi
6:20 AM57 °FSunny.No wind82%30.21 "Hg10 mi
5:50 AM54 °FSunny.2 mph94%30.21 "Hg10 mi
5:20 AM54 °FSunny.No wind94%30.21 "Hg10 mi
4:50 AM54 °FClear.1 mph94%30.21 "Hg10 mi
4:20 AM52 °FClear.1 mph94%30.21 "Hg10 mi
3:50 AM54 °FClear.1 mph94%30.21 "Hg10 mi
3:20 AM52 °FClear.No wind94%30.21 "Hg10 mi
2:50 AM54 °FClear.No wind94%30.21 "Hg10 mi
2:20 AM54 °FClear.No wind94%30.21 "Hg10 mi
1:50 AM54 °FClear.No wind94%30.18 "Hg10 mi
1:20 AM54 °FClear.1 mph94%30.18 "Hg10 mi
12:50 AM55 °FClear.2 mph88%30.18 "Hg10 mi
12:20 AM57 °FClear.2 mph82%30.18 "Hg10 mi
11:50 PM
Mon, May 30
57 °FSunny.3 mph88%30.18 "Hg10 mi
11:20 PM59 °FSunny.3 mph77%30.18 "Hg10 mi
10:50 PM61 °FSunny.6 mph72%30.18 "Hg10 mi
10:20 PM63 °FSunny.6 mph68%30.18 "Hg10 mi
9:50 PM64 °FSunny.6 mph64%30.18 "Hg10 mi
9:20 PM66 °FSunny.7 mph60%30.18 "Hg10 mi
8:50 PM68 °FSunny.8 mph56%30.18 "Hg10 mi
8:20 PM68 °FSunny.10 mph56%30.18 "Hg10 mi
7:50 PM68 °FSunny.12 mph56%30.18 "Hg10 mi
7:20 PM68 °FSunny.12 mph53%30.18 "Hg10 mi
6:50 PM70 °FSunny.12 mph53%30.18 "Hg10 mi
6:20 PM70 °FSunny.13 mph53%30.18 "Hg10 mi
5:50 PM70 °FSunny.13 mph53%30.18 "Hg10 mi
5:20 PM70 °FSunny.12 mph57%30.18 "Hg10 mi
4:50 PM70 °FSunny.14 mph53%30.18 "Hg10 mi
4:20 PM70 °FSunny.13 mph53%30.18 "Hg10 mi
3:50 PM72 °FPassing clouds.5 mph53%30.21 "HgN/A
3:20 PM73 °FSunny.3 mph47%30.21 "Hg10 mi
Weather by CustomWeather, © 2016

See weather overviewHow to use our weather pages